Tracking 19832 objects as of 26-Aug-2019
HD Live streaming from Space Station
objects crossing your sky now

MICROSAT-R DEB


MICROSAT-R DEB is no longer on orbit


NORAD ID: 44193
Int'l Code: 2019-006CD
Perigee: N/A
Apogee: N/A
Inclination: N/A
Period: N/A
Semi major axis: N/A
RCS: N/A
Launch date: January 24, 2019
Source: India (IND)
Launch site: SRIHARIKOTA (SRI)
Decay date: 2019-04-17

Note: This is SATELLITE DEBRIS
aabbcc
Your satellite tracking list
Your tracking list is empty




NASA's NSSDC Master Catalog

Two Line Element Set (TLE):
1 44193U 19006CD  19105.69684978  .03165755  79651-2  10062-1 0  9992
2 44193  96.1068  15.9886 0088419 306.7737  52.4939 15.86571021  1710
Source of the keplerian elements: AFSPC